Hourly Data Report for September 29, 2016

All times are specified in Local Standard Time (LST). Add 1 hour to adjust for Daylight Saving Time where and when it is observed.

KLEEFELD (MAFRI)
MANITOBA

49°31'04.000" N
96°54'04.000" W
246.50 m
5021500
71646
PTG

Download Data

Hourly Data (September 2016)
Hourly Data Report for September 29, 2016
Temp Definition
°C
Dew Point Temp Definition
°C
Rel Hum Definition
%
Wind Dir Definition
10's deg

Wind Spd Definition
km/h
Visibility Definition
km
Stn Press Definition
kPa
Hmdx Definition


Wind Chill Definition


Weather Definition


TIME
00:00 7.1 5.3 88 11 9   100.07     LegendNANA
01:00 7.3 5.4 88 12 7   100.10     LegendNANA
02:00 7.4 5.8 90 12 7   100.11     LegendNANA
03:00 6.2 4.9 92 12 4   100.15     LegendNANA
04:00 7.9 6.2 89 14 7   100.15     LegendNANA
05:00 8.5 6.3 86 14 9   100.17     LegendNANA
06:00 8.1 5.9 86 15 7   100.19     LegendNANA
07:00 8.7 6.8 88 16 9   100.17     LegendNANA
08:00 11.3 8.3 81 16 9   100.17     LegendNANA
09:00 13.6 8.4 71 16 11   100.22     LegendNANA
10:00 15.2 7.5 60 17 15   100.22     LegendNANA
11:00 16.5 7.3 55 16 15   100.21     LegendNANA
12:00 16.8 7.1 53 18 16   100.16     LegendNANA
13:00 17.8 8.0 53 18 14   100.09     LegendNANA
14:00 17.5 7.5 52 18 14   100.06     LegendNANA
15:00 18.2 8.4 53 13 9   100.00     LegendNANA
16:00 18.0 7.3 50 16 12   99.93     LegendNANA
17:00 17.6 7.4 51 17 12   99.90     LegendNANA
18:00 14.8 8.5 66 17 6   99.88     LegendNANA
19:00 12.0 7.5 74 12 8   99.88     LegendNANA
20:00 12.8 7.1 68 13 8   99.87     LegendNANA
21:00 10.3 6.6 78 13 9   99.88     LegendNANA
22:00 11.5 7.2 75 15 12   99.87     LegendNANA
23:00 11.1 6.8 75 15 14   99.87     LegendNANA

Notes on Data Quality.

Legend

  • E = Estimated
  • M = Missing
  • NA = Not Available
  • ‡ = Partner data that is not subject to review by the National Climate Archives
Date modified: